Погода в Исакиевском

Россия / Волгоградская область     50°28′07″N   42°12′31″E
темп.,
°C
ветер,
м/с
пор.,
м/с
влажн.,
%
обл.,
%
осадки,
мм/ч
давл.,
гПа
погр.,
м
6 марта, сб
сб600:00−2с2288100 0.0 101443
03:00−2ссв2288100 0.0 101659
06:00−3св2390100 0.0 1015100
09:00−2св2288100 0.0 1015214
12:00−1с2289100 0.1 1015305
15:00−1ссз4585100 0.6 1014548
18:00−2ссз3685100 0.1 1014409
21:00−4ссз6108598 0.1 1015686
7 марта, вс
вс700:00−6ссз7118685 0.0 1016636
03:00−7сз6108269 0.0 1018558
06:00−7з49790 0.0 1019440
09:00−4з69650 0.0 10191024
12:00−1зюз8115931 0.0 10161338
15:000юз8124866 0.0 10131350
18:00−1юз81554100 0.0 10101020
21:00−1юз91859100 0.0 10081086
8 марта, пн
пн800:00−1зюз9177698 0.0 1007993
03:00−1зюз9157897 0.0 1006958
06:00−1зюз81483100 0.1 1006863
09:000зюз8127697 0.1 10071069
12:00+2зюз9137398 0.1 10071326
15:00+2зсз9145696 0.6 10071714
18:00−2сз5106167 0.0 1009693
21:00−4ссз496533 0.0 1013586
9 марта, вт
вт900:00−5ссз36680 0.0 1014489
03:00−6зсз126620 0.0 1014227
06:00−6зюз1166100 0.0 101434
09:00−5св1157100 0.0 1015278
12:00−3св3251100 0.0 1014695
15:00−3ссв3252100 0.0 1014982
18:00−4ссв3475100 0.0 1015447
21:00−6ссв4682100 0.1 1017465
10 марта, ср
ср1000:00−7с5683100 0.1 1018550
03:00−9с5784100 0.3 1020595
06:00−11ссз5880100 0.1 1022570
09:00−11ссз567497 0.1 1024567
12:00−9ссз566028 0.0 1026813
15:00−7ссз455014 0.0 1025946
18:00−8с345712 0.0 1025624
21:00−9в226254 0.0 1026222